This demonstration page uses our WeatherBlox Daily Observations layout. Learn more.

Left ArrowRight Arrow

Hourly Observations for November 14, 2018

Temp ( °F °C ) Dew Point ( °F °C ) Humidity (%) Winds ( mph kmh ) Pressure ( in mb ) Visibility ( mi km ) Precip ( " mm )
12:52 am 00:52 Clear 24 -4.4 18 -7.8 77 77 SSE 10 17 30.49 1032 10 16 0.00 0.00
1:52 am 01:52 Clear 23 -5 17 -8.3 78 78 SSE 10 17 30.48 1032 10 16 0.00 0.00
2:52 am 02:52 Clear 23 -5 17 -8.3 78 78 SSE 10 17 30.48 1032 10 16 0.00 0.00
3:52 am 03:52 Clear 22 -5.6 17 -8.3 82 82 SSE 9 15 30.47 1032 10 16 0.00 0.00
4:52 am 04:52 Clear 23 -5 17 -8.3 78 78 SSE 10 17 30.46 1032 10 16 0.00 0.00
5:52 am 05:52 Clear 24 -4.4 18 -7.8 77 77 SSE 9 15 30.46 1032 10 16 0.00 0.00
6:52 am 06:52 Clear 22 -5.6 17 -8.3 82 82 SSE 9 15 30.48 1032 10 16 0.00 0.00
7:52 am 07:52 Sunny 25 -3.9 19 -7.2 78 78 SSE 9 15 30.48 1032 10 16 0.00 0.00
8:52 am 08:52 Mostly Sunny 28 -2.2 20 -6.7 72 72 SSE 13 20 30.49 1033 10 16 0.00 0.00
9:52 am 09:52 Mostly Sunny 33 0.6 22 -5.6 64 64 SSE 10 17 30.49 1032 10 16 0.00 0.00
10:52 am 10:52 Mostly Sunny 38 3.3 22 -5.6 52 52 S 15 24 30.46 1032 10 16 0.00 0.00
11:52 am 11:52 Mostly Sunny 42 5.6 21 -6.1 43 43 S 13 20 30.44 1031 10 16 0.00 0.00
12:52 pm 12:52 Mostly Sunny 45 7.2 23 -5 42 42 SSE 14 22 30.40 1029 10 16 0.00 0.00
1:52 pm 13:52 Sunny 46 7.8 22 -5.6 38 38 SSE 15 24 30.37 1028 10 16 0.00 0.00
2:52 pm 14:52 Sunny 46 7.8 23 -5 40 40 S 20 31 30.33 1027 10 16 0.00 0.00
3:52 pm 15:52 Mostly Sunny 45 7.2 21 -6.1 39 39 SSE 17 28 30.32 1027 10 16 0.00 0.00
4:52 pm 16:52 Mostly Sunny 42 5.6 20 -6.7 41 41 SSE 15 24 30.31 1026 10 16 0.00 0.00
5:52 pm 17:52 Clear 39 3.9 20 -6.7 46 46 S 14 22 30.30 1026 10 16 0.00 0.00
6:52 pm 18:52 Clear 37 2.8 19 -7.2 48 48 S 10 17 30.29 1026 10 16 0.00 0.00
7:52 pm 19:52 Clear 36 2.2 19 -7.2 50 50 S 13 20 30.29 1026 10 16 0.00 0.00
8:52 pm 20:52 Clear 34 1.1 18 -7.8 52 52 SSE 15 24 30.27 1025 10 16 0.00 0.00
9:52 pm 21:52 Clear 34 1.1 17 -8.3 50 50 S 15 24 30.26 1025 10 16 0.00 0.00
10:52 pm 22:52 Clear 32 0 18 -7.8 56 56 SSE 14 22 30.24 1024 10 16 0.00 0.00
11:52 pm 23:52 Clear 31 -0.6 18 -7.8 59 59 SSE 14 22 30.21 1023 10 16 0.00 0.00

Powered by AerisWeather